{"data":{"norad_id":59529,"intl_designator":"2024-073U","name":"STARLINK-31513","alt_names":[],"object_type":"PAYLOAD","status":"ACTIVE","operator":null,"country":"US","launch_date":"2024-04-17","launch_site_code":"AFETR","launch_vehicle":null,"mission":null,"orbit_class":"UNKNOWN","rcs_meters":null,"size_class":null,"mass_kg":null,"dimensions":null,"purposes":["comms"],"wikipedia_slug":null,"has_3d_model":false,"image_url":null,"decayed_at":null,"tle_current":{"epoch":"2026-09-21T03:16:07.428576Z","epoch_age_seconds":113281,"freshness":"FRESH","line1":"1 59529U 24073U   26264.13619709  .00000768  00000+0  37457-4 0  9992","line2":"2 59529  43.0044 291.0002 0001501 280.1760  79.8922 15.27575482136106","mean_motion":15.27575482,"eccentricity":0.0001501,"inclination_deg":43.0044,"raan_deg":291.0002,"arg_perigee_deg":280.176,"mean_anomaly_deg":79.8922,"bstar":3.7457e-5,"rev_number":13610,"period_min":94.267027519626,"perigee_km":482.03275852669,"apogee_km":484.09249065399,"semimajor_km":6861.1996245903,"source":"CELESTRAK","updated_at":"2026-09-22T09:00:48.966312Z"}}}